Galena, Illinois, United States (61036)
Lat: 42.42N, Lon: 90.43W
Wx Zone: ILZ001
Local Info
Past Weather Observations for Today

NOTE: This archive is for the closest National Weather Service station to Galena. Information may differ from the station used for current weather conditions.

Click here for Long-term Archive

Time Weather Temperature Dewpoint Humidity Pressure Winds Precip Visibility
14:53
Overcast
19°F / -7°C 12°F / -11°C 73% 29.77 in
(1008 mb)
NNW 16.1 mph
(NNW 26 kph)
- 10SM
13:53
Overcast
19°F / -7°C 12°F / -11°C 73% 29.77 in
(1008 mb)
NW 17.3 mph
(NW 28 kph)
- 10SM
12:53
Overcast
19°F / -7°C 12°F / -11°C 73% 29.77 in
(1008 mb)
NNW 16.1 mph
(NNW 26 kph)
- 10SM
11:53
Overcast
19°F / -7°C 12°F / -11°C 73% 29.77 in
(1008 mb)
NNW 13.8 mph
(NNW 22 kph)
0.00 in
(0.00 mm)
9SM
10:53
Overcast
19°F / -7°C 12°F / -11°C 73% 29.77 in
(1008 mb)
NW 15 mph
(NW 24 kph)
- 10SM
10:29
Overcast
18°F / -8°C 12°F / -11°C 79% 29.74 in
(1007 mb)
NW 19.6 mph
(NW 32 kph)
- 7SM
09:53
Overcast
18°F / -8°C 10°F / -12°C 73% 29.74 in
(1007 mb)
NNW 16.1 mph
(NNW 26 kph)
0.00 in
(0.00 mm)
8SM
09:46
Overcast
Hazy
18°F / -8°C 10°F / -12°C 73% 29.74 in
(1007 mb)
NNW 19.6 mph
(NNW 32 kph)
0.00 in
(0.00 mm)
6SM
09:30
Overcast
18°F / -8°C 10°F / -12°C 73% 29.74 in
(1007 mb)
NNW 19.6 mph
(NNW 32 kph)
0.00 in
(0.00 mm)
8SM
08:53
Overcast
18°F / -8°C 10°F / -12°C 73% 29.74 in
(1007 mb)
NNW 16.1 mph
(NNW 26 kph)
0.00 in
(0.00 mm)
9SM
08:14
Overcast
Hazy
16°F / -9°C 10°F / -12°C 79% 29.71 in
(1006 mb)
NW 17.3 mph
(NW 28 kph)
0.00 in
(0.00 mm)
6SM
08:04
Overcast
Light Snow
18°F / -8°C 10°F / -12°C 73% 29.71 in
(1006 mb)
NW 13.8 mph
(NW 22 kph)
0.00 in
(0.00 mm)
2 1/2SM
07:53
Overcast
Light Snow
18°F / -8°C 12°F / -11°C 79% 29.71 in
(1006 mb)
NNW 12.7 mph
(NNW 20 kph)
0.00 in
(0.00 mm)
2 1/2SM
07:38
Overcast
Light Snow
18°F / -8°C 12°F / -11°C 79% 29.71 in
(1006 mb)
NW 17.3 mph
(NW 28 kph)
0.00 in
(0.00 mm)
2 1/2SM
07:04
Overcast
Light Snow
18°F / -8°C 12°F / -11°C 79% 29.71 in
(1006 mb)
NW 12.7 mph
(NW 20 kph)
0.00 in
(0.00 mm)
2 1/2SM
06:53
Overcast
Light Snow
18°F / -8°C 12°F / -11°C 79% 29.71 in
(1006 mb)
NW 17.3 mph
(NW 28 kph)
0.00 in
(0.00 mm)
2 1/2SM
06:24
Overcast
18°F / -8°C 12°F / -11°C 79% 29.71 in
(1006 mb)
NW 19.6 mph
(NW 32 kph)
- 10SM
05:53
Overcast
18°F / -8°C 12°F / -11°C 79% 29.68 in
(1005 mb)
NW 20.7 mph
(NW 33 kph)
0.00 in
(0.00 mm)
10SM
05:05
Overcast
Light Snow
18°F / -8°C 14°F / -10°C 86% 29.68 in
(1005 mb)
NW 20.7 mph
(NW 33 kph)
0.00 in
(0.00 mm)
8SM
04:53
Overcast
Light Snow
19°F / -7°C 14°F / -10°C 79% 29.68 in
(1005 mb)
NW 19.6 mph
(NW 32 kph)
0.00 in
(0.00 mm)
3SM
04:44
Overcast
Light Snow
19°F / -7°C 16°F / -9°C 86% 29.68 in
(1005 mb)
NW 19.6 mph
(NW 32 kph)
0.00 in
(0.00 mm)
2 1/2SM
04:30
Overcast
Light Snow
19°F / -7°C 16°F / -9°C 86% 29.68 in
(1005 mb)
WNW 13.8 mph
(WNW 22 kph)
0.00 in
(0.00 mm)
3SM
04:12
Overcast
Light Snow
19°F / -7°C 16°F / -9°C 86% 29.68 in
(1005 mb)
NW 18.4 mph
(NW 30 kph)
0.00 in
(0.00 mm)
1 3/4SM
04:06
Overcast
Light Snow
19°F / -7°C 16°F / -9°C 86% 29.68 in
(1005 mb)
NW 18.4 mph
(NW 30 kph)
0.00 in
(0.00 mm)
2 1/2SM
03:53
Overcast
Light Snow
19°F / -7°C 18°F / -8°C 93% 29.68 in
(1005 mb)
NW 17.3 mph
(NW 28 kph)
0.00 in
(0.00 mm)
1 1/2SM
03:30
Overcast
Light Snow
21°F / -6°C 16°F / -9°C 80% 29.68 in
(1005 mb)
NW 23 mph
(NW 37 kph)
0.00 in
(0.00 mm)
2SM
03:08
Overcast
23°F / -5°C 18°F / -8°C 80% 29.68 in
(1005 mb)
NW 18.4 mph
(NW 30 kph)
- 10SM
02:53
Overcast
23°F / -5°C 18°F / -8°C 80% 29.68 in
(1005 mb)
NW 18.4 mph
(NW 30 kph)
- 10SM
01:53
Overcast
27°F / -3°C 18°F / -8°C 69% 29.68 in
(1005 mb)
WNW 18.4 mph
(WNW 30 kph)
- 10SM
01:43
Overcast
27°F / -3°C 18°F / -8°C 69% 29.68 in
(1005 mb)
WNW 17.3 mph
(WNW 28 kph)
- 10SM
01:16
Overcast
28°F / -2°C 21°F / -6°C 74% 29.68 in
(1005 mb)
NW 17.3 mph
(NW 28 kph)
- 10SM
00:53
Overcast
28°F / -2°C 25°F / -4°C 86% 29.68 in
(1005 mb)
NW 19.6 mph
(NW 32 kph)
- 10SM
00:01
Overcast
30°F / -1°C 27°F / -3°C 86% 29.68 in
(1005 mb)
NW 17.3 mph
(NW 28 kph)
- 10SM
Time Weather Temperature Dewpoint Humidity Pressure Winds Precip Visibility


Weather for websites

WeatherForYou.com, LLC is not responsible for any damages or problems caused by this service. Current weather conditions are obtained from the closest station including government and personal stations which may have varying degrees of accuracy. Weather forecasts are derived from the NOAA NDFD. Like all things, this site belongs to Jesus Christ... He just trusts us to maintain it. If you have any questions or comments email webmaster@weatherforyou.com

Copyright © 2016, WeatherForYou.com LLC. All rights reserved.